�N����,����,�~����,�C��,���x,�C��,����,���ϕ���,�ő�u�ԕ���,�ő厞����,���˗�,�I�_���x,�n�����x,�ő啗���N��,DTYPE
"23/04/14","00:10",0.0,9.5,73.5,1014.5,310.4,1.8,2.5,310.5,0.00,5.0,14.1,"00:04:48",1
"23/04/14","00:20",0.0,9.3,74.3,1014.9,324.7,1.7,2.7,314.3,0.00,5.0,14.0,"00:19:12",1
"23/04/14","00:30",0.0,9.2,75.4,1014.7,303.5,2.5,3.2,320.1,0.00,5.1,14.0,"00:21:52",1
"23/04/14","00:40",0.0,9.6,75.6,1014.7,303.2,2.7,3.3,313.8,0.00,5.5,13.9,"00:35:44",1
"23/04/14","00:50",0.0,9.8,75.7,1014.9,298.6,2.3,3.4,326.7,0.00,5.8,14.0,"00:42:40",1
"23/04/14","01:00",0.0,9.7,75.6,1014.9,315.4,2.0,2.7,325.5,0.00,5.6,13.7,"00:52:40",1
"23/04/14","01:10",0.0,9.2,75.7,1014.9,297.5,1.1,1.8,341.9,0.00,5.2,13.9,"01:00:24",1
"23/04/14","01:20",0.0,9.2,76.5,1014.9,302.8,2.2,3.4,309.1,0.00,5.3,13.7,"01:16:08",1
"23/04/14","01:30",0.0,9.3,77.0,1014.7,315.7,2.3,2.9,319.3,0.00,5.5,13.7,"01:26:32",1
"23/04/14","01:40",0.0,9.4,77.3,1014.2,309.2,2.1,3.3,317.7,0.00,5.7,13.6,"01:30:16",1
"23/04/14","01:50",0.0,9.3,77.6,1014.5,303.0,2.1,2.9,312.5,0.00,5.6,13.7,"01:40:08",1
"23/04/14","02:00",0.0,9.1,77.9,1014.2,298.9,1.7,2.7,312.6,0.00,5.5,13.5,"01:50:16",1
"23/04/14","02:10",0.0,8.6,79.0,1014.5,322.2,2.1,2.9,318.5,0.00,5.2,13.5,"02:01:52",1
"23/04/14","02:20",0.0,8.5,80.5,1014.7,314.3,2.2,2.6,320.2,0.00,5.4,13.5,"02:18:56",1
"23/04/14","02:30",0.0,8.4,81.5,1014.5,290.2,1.1,3.7,316.4,0.00,5.5,13.4,"02:20:16",1
"23/04/14","02:40",0.0,8.2,82.6,1014.2,314.2,2.2,2.8,324.5,0.00,5.5,13.4,"02:36:40",1
"23/04/14","02:50",0.0,8.1,83.4,1014.7,314.4,2.0,2.5,324.7,0.00,5.5,13.5,"02:42:32",1
"23/04/14","03:00",0.0,8.0,84.0,1014.7,297.7,1.2,2.0,323.0,0.00,5.5,13.2,"02:50:08",1
"23/04/14","03:10",0.0,7.9,84.7,1014.5,308.1,2.3,3.6,323.6,0.00,5.5,13.2,"03:09:52",1
"23/04/14","03:20",0.0,7.7,85.6,1014.5,320.8,2.5,3.4,323.9,0.00,5.5,13.1,"03:10:16",1
"23/04/14","03:30",0.0,7.8,86.4,1014.5,310.1,2.3,2.8,308.6,0.00,5.7,13.3,"03:27:04",1
"23/04/14","03:40",0.0,8.0,86.9,1014.2,299.5,2.2,2.7,314.8,0.00,6.0,13.2,"03:34:40",1
"23/04/14","03:50",0.0,8.0,87.2,1014.5,295.3,1.8,2.5,315.0,0.00,6.0,13.2,"03:40:56",1
"23/04/14","04:00",0.0,8.0,87.4,1014.2,312.9,2.2,2.7,316.2,0.00,6.1,13.2,"03:51:12",1
"23/04/14","04:10",0.0,7.7,87.6,1014.2,289.6,1.5,1.9,314.5,0.00,5.8,13.1,"04:00:08",1
"23/04/14","04:20",0.0,7.8,87.9,1014.5,314.1,2.2,2.9,322.6,0.00,6.0,12.7,"04:19:52",1
"23/04/14","04:30",0.0,7.7,88.1,1014.2,313.8,2.5,3.2,322.8,0.00,5.9,13.0,"04:22:16",1
"23/04/14","04:40",0.0,7.6,88.4,1014.5,305.5,2.2,2.7,309.9,0.00,5.8,12.9,"04:30:24",1
"23/04/14","04:50",0.0,7.6,88.8,1014.0,287.8,0.7,2.6,316.1,0.00,5.9,12.9,"04:49:52",1
"23/04/14","05:00",0.0,7.5,89.1,1014.0,305.5,2.1,3.2,317.3,0.00,5.9,12.8,"04:58:32",1
"23/04/14","05:10",0.0,7.5,89.5,1014.2,316.0,2.8,3.3,320.8,0.00,5.9,12.9,"05:06:16",1
"23/04/14","05:20",0.0,7.5,89.8,1014.2,302.2,2.1,2.7,320.2,0.00,6.0,12.7,"05:12:00",1
"23/04/14","05:30",0.0,7.8,90.2,1014.2,293.0,2.2,2.7,316.7,0.00,6.3,12.8,"05:21:52",1
"23/04/14","05:40",0.0,7.9,90.3,1014.2,309.4,2.3,3.4,316.8,0.00,6.5,12.7,"05:31:12",1
"23/04/14","05:50",0.0,7.8,90.5,1014.2,290.0,1.7,2.0,292.4,0.00,6.4,12.6,"05:40:08",1
"23/04/14","06:00",0.0,7.5,90.7,1014.5,307.3,2.5,3.4,318.6,0.00,6.1,12.4,"05:54:08",1
"23/04/14","06:10",0.0,7.2,90.9,1014.2,300.5,1.8,2.5,313.1,0.00,5.9,12.6,"06:00:32",1
"23/04/14","06:20",0.0,7.1,91.2,1014.5,300.0,1.5,2.0,306.4,0.00,5.8,12.6,"06:13:36",1
"23/04/14","06:30",0.0,7.3,91.4,1014.2,299.9,2.1,2.9,319.2,0.00,6.0,12.5,"06:28:56",1
"23/04/14","06:40",0.0,7.4,91.8,1014.5,313.4,2.3,2.6,309.5,0.00,6.2,12.4,"06:32:08",1
"23/04/14","06:50",0.0,7.7,91.9,1014.5,300.8,2.0,2.5,319.8,0.00,6.5,12.4,"06:41:20",1
"23/04/14","07:00",0.0,7.7,92.1,1014.5,300.9,1.6,2.1,311.9,0.00,6.5,12.3,"06:59:20",1
"23/04/14","07:10",0.0,8.2,92.3,1014.9,312.0,1.5,2.2,318.2,0.01,7.1,12.4,"07:08:56",1
"23/04/14","07:20",0.0,8.7,92.7,1014.7,306.0,1.6,2.1,300.7,0.05,7.6,12.4,"07:10:24",1
"23/04/14","07:30",0.0,9.7,92.7,1014.7,281.0,1.1,2.0,311.0,0.07,8.6,12.6,"07:20:24",1
"23/04/14","07:40",0.0,10.6,92.3,1014.5,279.4,0.5,0.9,294.1,0.06,9.4,12.2,"07:30:08",1
"23/04/14","07:50",0.0,10.5,91.9,1015.2,225.6,0.1,0.5,111.7,0.07,9.3,12.5,"07:45:44",1
"23/04/14","08:00",0.0,11.6,91.4,1015.4,273.3,0.3,1.1,300.6,0.11,10.3,12.3,"07:59:24",1
"23/04/14","08:10",0.0,12.3,90.2,1015.4,273.0,0.7,1.3,266.8,0.13,10.8,12.4,"08:07:38",1
"23/04/14","08:20",0.0,12.7,88.8,1015.6,272.6,0.6,1.3,250.3,0.16,10.9,12.4,"08:10:40",1
"23/04/14","08:30",0.0,13.5,86.0,1015.6,273.4,0.3,0.9,272.9,0.18,11.2,12.4,"08:24:16",1
"23/04/14","08:40",0.0,14.4,80.9,1015.4,19.0,0.5,1.0,96.6,0.20,11.2,12.5,"08:39:20",1
"23/04/14","08:50",0.0,15.0,74.6,1015.6,33.9,0.7,1.4,118.8,0.23,10.6,12.4,"08:46:08",1
"23/04/14","09:00",0.0,15.7,69.8,1015.2,358.7,0.6,1.3,322.0,0.25,10.2,12.4,"08:53:52",1
"23/04/14","09:10",0.0,16.2,67.5,1014.9,88.3,0.6,1.6,131.4,0.28,10.2,12.5,"09:08:00",1
"23/04/14","09:20",0.0,16.5,66.6,1014.9,64.9,0.6,1.7,110.8,0.31,10.3,12.7,"09:14:48",1
"23/04/14","09:30",0.0,17.1,64.8,1014.7,123.4,0.5,1.4,115.7,0.34,10.5,12.6,"09:22:48",1
"23/04/14","09:40",0.0,17.5,63.6,1014.5,199.9,0.7,2.0,149.7,0.38,10.6,12.7,"09:39:28",1
"23/04/14","09:50",0.0,18.1,62.7,1014.2,188.1,0.6,2.2,216.2,0.38,10.9,12.8,"09:44:40",1
"23/04/14","10:00",0.0,18.6,60.4,1014.0,141.2,0.6,2.7,111.8,0.39,10.8,13.1,"09:59:28",1
"23/04/14","10:10",0.0,18.4,58.5,1014.0,171.5,1.1,3.5,123.4,0.42,10.2,13.1,"10:07:28",1
"23/04/14","10:20",0.0,18.7,56.5,1014.0,151.7,1.2,3.4,140.5,0.44,9.9,13.1,"10:13:44",1
"23/04/14","10:30",0.0,18.8,54.5,1013.8,127.8,1.7,4.1,113.0,0.47,9.5,13.0,"10:25:44",1
"23/04/14","10:40",0.0,19.1,53.1,1013.8,201.5,1.3,2.9,183.0,0.36,9.4,13.1,"10:32:08",1
"23/04/14","10:50",0.0,18.8,52.9,1014.0,157.7,1.3,2.7,224.3,0.28,9.0,13.2,"10:41:12",1
"23/04/14","11:00",0.0,19.3,52.1,1013.8,127.5,1.5,3.6,114.0,0.47,9.3,13.4,"10:59:12",1
"23/04/14","11:10",0.0,19.3,52.9,1013.8,334.8,0.8,3.2,114.2,0.21,9.5,13.4,"11:00:08",1
"23/04/14","11:20",0.0,20.2,51.2,1013.0,40.1,0.6,1.4,115.1,0.43,9.8,13.4,"11:14:32",1
"23/04/14","11:30",0.0,20.9,48.6,1012.8,117.3,1.1,2.4,357.5,0.46,9.7,13.7,"11:29:28",1
"23/04/14","11:40",0.0,21.0,48.3,1012.6,24.6,1.2,2.9,356.2,0.51,9.7,13.7,"11:30:32",1
"23/04/14","11:50",0.0,21.9,47.8,1012.3,342.7,0.7,2.1,114.1,0.49,10.4,13.9,"11:49:52",1
"23/04/14","12:00",0.0,21.1,47.6,1012.1,128.6,2.0,3.9,123.7,0.57,9.6,13.9,"11:54:16",1
"23/04/14","12:10",0.0,21.3,47.3,1011.6,62.6,1.7,4.1,113.1,0.58,9.7,14.2,"12:05:44",1
"23/04/14","12:20",0.0,21.9,46.5,1010.9,191.7,1.5,3.9,209.1,0.59,10.0,14.4,"12:17:20",1
"23/04/14","12:30",0.0,22.4,43.9,1010.9,158.6,1.5,3.5,123.5,0.58,9.6,14.4,"12:26:08",1
"23/04/14","12:40",0.0,22.3,44.8,1010.9,187.2,2.1,4.8,216.4,0.58,9.8,14.5,"12:39:52",1
"23/04/14","12:50",0.0,22.5,46.8,1010.9,173.8,2.3,4.2,142.5,0.58,10.6,14.6,"12:44:48",1
"23/04/14","13:00",0.0,22.9,44.3,1010.7,145.4,1.6,3.7,185.8,0.58,10.2,14.7,"12:50:02",1
"23/04/14","13:10",0.0,23.2,44.0,1010.2,165.6,1.6,4.1,127.5,0.58,10.3,15.1,"13:05:36",1
"23/04/14","13:20",0.0,23.6,43.8,1010.2,236.9,1.6,4.3,196.4,0.56,10.6,15.0,"13:15:04",1
"23/04/14","13:30",0.0,23.6,41.6,1010.0,162.6,1.2,3.7,120.3,0.43,9.8,15.1,"13:25:36",1
"23/04/14","13:40",0.0,23.1,38.7,1010.0,103.8,1.6,3.7,110.8,0.35,8.3,15.2,"13:34:48",1
"23/04/14","13:50",0.0,23.1,41.9,1010.0,211.6,1.2,3.1,185.7,0.27,9.5,15.3,"13:49:36",1
"23/04/14","14:00",0.0,23.2,41.4,1010.0,159.4,1.3,3.5,117.1,0.27,9.4,15.5,"13:54:24",1
"23/04/14","14:10",0.0,23.2,39.4,1010.0,182.8,0.8,2.7,115.4,0.22,8.7,15.7,"14:03:52",1
"23/04/14","14:20",0.0,23.3,39.0,1010.2,176.0,1.0,3.6,105.5,0.19,8.6,15.7,"14:19:20",1
"23/04/14","14:30",0.0,23.0,38.7,1010.0,135.2,1.7,4.1,122.4,0.22,8.2,15.6,"14:20:48",1
"23/04/14","14:40",0.0,23.0,38.7,1009.7,94.6,1.0,2.7,115.8,0.14,8.2,16.0,"14:32:32",1
"23/04/14","14:50",0.0,22.7,41.3,1010.0,13.1,1.8,4.2,309.6,0.08,8.9,15.9,"14:49:52",1
"23/04/14","15:00",0.0,21.9,44.4,1010.0,282.6,2.3,4.4,295.7,0.06,9.3,16.0,"14:56:08",1
"23/04/14","15:10",0.0,21.2,45.4,1010.0,262.7,2.8,4.5,257.4,0.05,9.0,16.0,"15:02:48",1
"23/04/14","15:20",0.0,21.1,46.8,1010.4,282.0,2.1,4.7,243.5,0.05,9.3,16.0,"15:17:36",1
"23/04/14","15:30",0.0,21.3,45.2,1010.2,290.5,2.1,4.3,316.1,0.14,9.0,16.2,"15:20:32",1
"23/04/14","15:40",0.0,21.2,45.2,1010.4,311.2,3.0,6.2,339.1,0.12,8.9,15.8,"15:32:08",1
"23/04/14","15:50",0.0,21.1,45.0,1010.0,310.2,2.5,4.4,332.3,0.09,8.8,16.0,"15:48:00",1
"23/04/14","16:00",0.0,21.2,44.9,1010.0,294.3,2.3,4.0,327.8,0.09,8.8,15.9,"15:56:32",1
"23/04/14","16:10",0.0,21.3,44.0,1010.0,275.8,1.8,3.3,245.0,0.12,8.6,16.1,"16:00:02",1
"23/04/14","16:20",0.0,21.7,45.0,1010.0,260.5,1.1,2.5,251.0,0.12,9.3,16.0,"16:10:08",1
"23/04/14","16:30",0.0,21.5,42.3,1009.7,319.8,2.0,3.7,325.8,0.08,8.2,16.0,"16:23:20",1
"23/04/14","16:40",0.0,21.5,41.5,1009.5,322.9,0.5,1.7,334.9,0.08,7.9,16.1,"16:30:08",1
"23/04/14","16:50",0.0,21.7,42.2,1009.7,221.6,0.6,2.4,248.1,0.08,8.4,16.0,"16:47:28",1
"23/04/14","17:00",0.0,21.6,38.8,1010.0,215.1,1.1,2.4,232.3,0.07,7.0,16.0,"16:54:40",1
"23/04/14","17:10",0.0,21.7,40.1,1010.2,277.1,0.8,1.8,267.6,0.08,7.6,15.9,"17:01:28",1
"23/04/14","17:20",0.0,21.2,35.9,1010.0,328.2,2.6,4.1,337.7,0.06,5.6,15.9,"17:16:32",1
"23/04/14","17:30",0.0,20.6,40.3,1010.2,324.5,3.0,5.1,334.9,0.06,6.7,16.0,"17:25:20",1
"23/04/14","17:40",0.0,20.3,42.2,1010.2,301.9,2.1,4.4,326.0,0.03,7.1,16.0,"17:30:40",1
"23/04/14","17:50",0.0,20.0,43.7,1010.0,302.7,2.1,5.0,310.0,0.03,7.3,15.9,"17:45:20",1
"23/04/14","18:00",0.0,19.6,45.5,1010.2,305.7,2.0,3.9,332.4,0.01,7.6,15.8,"17:59:20",1
"23/04/14","18:10",0.0,19.3,49.0,1010.2,326.2,1.5,3.3,324.1,0.00,8.4,15.8,"18:00:32",1
"23/04/14","18:20",0.0,19.2,49.3,1010.2,305.6,1.8,3.7,323.8,0.01,8.4,15.9,"18:14:56",1
"23/04/14","18:30",0.0,19.1,51.2,1009.7,291.9,1.1,2.6,323.8,0.00,8.8,15.8,"18:22:00",1
"23/04/14","18:40",0.0,18.8,60.0,1010.0,196.1,1.2,2.4,188.5,0.00,10.9,15.7,"18:35:44",1
"23/04/14","18:50",0.0,18.6,61.9,1010.2,243.4,1.0,1.6,240.0,0.00,11.2,15.7,"18:44:24",1
"23/04/14","19:00",0.0,18.1,59.7,1010.2,323.0,1.3,2.7,329.0,0.00,10.2,15.9,"18:59:44",1
"23/04/14","19:10",0.0,18.1,58.0,1010.7,302.3,1.7,3.1,254.4,0.00,9.8,15.7,"19:09:52",1
"23/04/14","19:20",0.0,18.0,59.6,1010.2,322.4,2.1,3.1,336.1,0.00,10.1,15.8,"19:16:00",1
"23/04/14","19:30",0.0,17.7,61.6,1009.7,337.3,1.8,3.9,337.4,0.00,10.3,15.7,"19:23:44",1
"23/04/14","19:40",0.0,17.5,62.9,1010.4,300.5,1.1,1.8,307.7,0.00,10.4,15.8,"19:37:36",1
"23/04/14","19:50",0.0,17.5,64.0,1010.4,263.0,1.3,2.2,251.7,0.00,10.7,15.4,"19:44:56",1
"23/04/14","20:00",0.0,17.4,65.1,1010.4,327.1,1.1,2.0,336.1,0.00,10.8,15.7,"19:58:24",1
"23/04/14","20:10",0.0,17.0,66.4,1010.4,343.3,1.3,2.5,351.9,0.00,10.7,15.6,"20:08:56",1
"23/04/14","20:20",0.0,16.6,68.4,1010.7,336.8,1.7,2.6,339.1,0.00,10.8,15.6,"20:12:08",1
"23/04/14","20:30",0.0,16.6,69.7,1010.4,323.9,2.0,2.7,341.4,0.00,11.1,15.5,"20:28:32",1
"23/04/14","20:40",0.0,16.4,70.7,1010.4,328.9,1.7,2.7,335.7,0.00,11.1,15.5,"20:31:52",1
"23/04/14","20:50",0.0,16.1,71.5,1010.4,322.9,1.3,1.8,339.0,0.00,11.0,15.4,"20:46:48",1
"23/04/14","21:00",0.0,16.1,72.0,1010.7,314.6,1.6,2.7,307.4,0.00,11.1,15.4,"20:57:54",1
"23/04/14","21:10",0.0,16.0,72.4,1010.2,322.9,1.7,2.2,317.4,0.00,11.1,15.5,"21:07:26",1
"23/04/14","21:20",0.0,15.9,73.2,1010.2,332.0,1.8,2.5,324.5,0.00,11.2,15.3,"21:15:56",1
"23/04/14","21:30",0.0,15.7,74.4,1010.2,314.7,1.6,2.5,341.9,0.00,11.2,15.4,"21:21:04",1
"23/04/14","21:40",0.0,15.6,74.6,1010.0,297.6,1.8,3.6,319.4,0.00,11.1,15.3,"21:33:04",1
"23/04/14","21:50",0.0,15.7,74.8,1010.2,271.9,1.2,2.0,256.3,0.00,11.3,15.4,"21:48:24",1
"23/04/14","22:00",0.0,15.8,74.7,1010.2,271.4,1.0,1.4,257.7,0.00,11.4,15.2,"21:51:40",1
"23/04/14","22:10",0.0,15.9,75.0,1010.2,268.4,1.6,2.7,259.9,0.00,11.5,15.3,"22:08:40",1
"23/04/14","22:20",0.0,16.0,75.1,1010.2,297.0,1.3,2.4,262.1,0.00,11.6,15.2,"22:11:00",1
"23/04/14","22:30",0.0,15.8,75.6,1010.2,342.5,1.2,1.9,340.6,0.00,11.5,15.2,"22:21:50",1
"23/04/14","22:40",0.0,15.4,77.2,1010.0,328.1,1.6,2.1,325.8,0.00,11.5,15.2,"22:31:16",1
"23/04/14","22:50",0.0,15.3,78.0,1009.5,331.8,1.5,2.4,338.6,0.00,11.5,15.2,"22:43:44",1
"23/04/14","23:00",0.0,15.4,78.3,1009.5,287.2,1.0,1.8,314.1,0.00,11.7,15.3,"22:59:04",1
"23/04/14","23:10",0.0,15.3,78.6,1009.3,332.7,2.3,3.6,344.8,0.00,11.6,15.1,"23:03:32",1
"23/04/14","23:20",0.0,15.3,78.8,1009.0,314.3,1.5,2.2,310.2,0.00,11.7,15.2,"23:11:42",1
"23/04/14","23:30",0.0,15.2,79.2,1009.3,295.9,1.2,1.7,314.5,0.00,11.7,15.1,"23:22:20",1
"23/04/14","23:40",0.0,15.2,80.3,1009.0,296.5,1.5,2.1,306.4,0.00,11.9,15.0,"23:36:38",1
"23/04/14","23:50",0.2,15.0,81.5,1009.3,294.4,1.6,2.1,298.4,0.00,11.9,15.0,"23:41:44",1
"23/04/14","24:00",0.0,14.8,83.0,1009.5,303.6,1.6,2.4,303.6,0.00,12.0,15.1,"23:57:20",1
